Weather History for Clinton, MO

Change the Weather History Date:

Thursday, January 31, 2013

  Actual Average (KSZL) Record (KSZL)
Temperature  
Mean Temperature 22 °F -  
Max Temperature 32 °F 39 °F 65 °F (2012)
Min Temperature 12 °F 22 °F 5 °F (2004)
Degree Days  
Heating Degree Days 43    
Moisture  
Dew Point 15 °F    
Average Humidity 68    
Maximum Humidity 86    
Minimum Humidity 47    
Precipitation  
Precipitation 0.00 in - - ()
Sea Level Pressure  
Sea Level Pressure 30.18 in    
Wind  
Wind Speed 0 mph (North)    
Max Wind Speed 0 mph    
Max Gust Speed -    
Visibility 9 miles    
Events Rain    
Averages and records for this station are not official NWS values.
T = Trace of Precipitation, MM = Missing Value Source: NWS Daily Summary

Daily Weather History Graph

Daily Weather History Graph

Search for Another Location

Airport:

Trip Planner

Search our weather history database for the weather conditions in past years. The results will help you decide how hot, cold, wet, or windy it might be!

Date:

Astronomy

Jan. 31, 2013 Rise Set
Actual Time 7:20 AM CST 5:36 PM CST
Civil Twilight 6:52 AM CST 6:04 PM CST
Nautical Twilight 6:20 AM CST 6:36 PM CST
Astronomical Twilight 5:49 AM CST 7:07 PM CST
Moon 10:34 PM CST (1/31) 9:24 AM CST (1/31)
Length of Visible Light 11h 11m
Length of Day
10h 15m
Waning Gibbous, 79% of the Moon is Illuminated
Jan 31
Waning Gibbous
Feb 3
Last Quarter
Feb 10
New
Feb 17
First Quarter
Feb 25
Full

Hourly Weather History & Observations

Time (CST) Temp. Dew Point Humidity Pressure Visibility Wind Dir Wind Speed Gust Speed Precip Events Conditions
12:15 AM 28.4 °F 17.6 °F 64% 30.01 in 10.0 mi Calm Calm - N/A   Overcast
12:35 AM 26.6 °F 19.4 °F 74% 30.00 in 10.0 mi Calm Calm - N/A   Mostly Cloudy
12:55 AM 24.8 °F 17.6 °F 74% 30.00 in 10.0 mi Calm Calm - N/A   Partly Cloudy
1:15 AM 24.8 °F 19.4 °F 80% 29.99 in 10.0 mi Calm Calm - N/A   Clear
1:35 AM 23.0 °F 19.4 °F 86% 30.00 in 10.0 mi Calm Calm - N/A   Clear
1:55 AM 23.0 °F 19.4 °F 86% 29.99 in 10.0 mi Calm Calm - N/A   Clear
2:15 AM 24.8 °F 19.4 °F 80% 29.99 in 10.0 mi Calm Calm - N/A   Clear
2:35 AM 24.8 °F 19.4 °F 80% 29.99 in 10.0 mi Calm Calm - N/A   Clear
2:55 AM 24.8 °F 19.4 °F 80% 29.99 in 10.0 mi Calm Calm - N/A   Partly Cloudy
3:15 AM 26.6 °F 19.4 °F 74% 29.99 in 10.0 mi Calm Calm - N/A   Partly Cloudy
3:35 AM 26.6 °F 19.4 °F 74% 29.99 in 10.0 mi Calm Calm - N/A   Mostly Cloudy
3:55 AM 26.6 °F 21.2 °F 80% 29.99 in 10.0 mi Calm Calm - N/A   Overcast
4:15 AM 26.6 °F 21.2 °F 80% 29.99 in 10.0 mi Calm Calm - N/A   Overcast
4:35 AM 28.4 °F 21.2 °F 74% 29.98 in 10.0 mi Calm Calm - N/A   Overcast
4:55 AM 28.4 °F 21.2 °F 74% 29.97 in 10.0 mi Calm Calm - N/A   Overcast
5:15 AM 28.4 °F 21.2 °F 74% 29.96 in 9.0 mi Calm Calm - N/A   Overcast
5:35 AM 28.4 °F 23.0 °F 80% 29.97 in 10.0 mi Calm Calm - N/A   Mostly Cloudy
5:55 AM 28.4 °F 23.0 °F 80% 29.98 in 9.0 mi Calm Calm - N/A   Mostly Cloudy
6:15 AM 28.4 °F 23.0 °F 80% 29.98 in 9.0 mi Calm Calm - N/A   Scattered Clouds
6:35 AM 28.4 °F 23.0 °F 80% 29.98 in 9.0 mi Calm Calm - N/A   Scattered Clouds
6:55 AM 26.6 °F 23.0 °F 86% 29.99 in 9.0 mi Calm Calm - N/A   Partly Cloudy
7:15 AM 26.6 °F 23.0 °F 86% 30.00 in 8.0 mi Calm Calm - N/A   Clear
7:35 AM 26.6 °F 23.0 °F 86% 30.01 in 6.0 mi Calm Calm - N/A   Clear
7:55 AM 26.6 °F 23.0 °F 86% 30.02 in 6.0 mi Calm Calm - N/A   Clear
8:15 AM 28.4 °F 24.8 °F 86% 30.04 in 7.0 mi Calm Calm - N/A   Clear
8:35 AM 30.2 °F 24.8 °F 80% 30.05 in 7.0 mi Calm Calm - N/A   Clear
8:55 AM 30.2 °F 24.8 °F 80% 30.06 in 7.0 mi Calm Calm - N/A   Partly Cloudy
9:15 AM 30.2 °F 26.6 °F 86% 30.08 in 8.0 mi Calm Calm - N/A   Mostly Cloudy
9:35 AM 30.2 °F 24.8 °F 80% 30.08 in 8.0 mi Calm Calm - N/A   Mostly Cloudy
9:55 AM 30.2 °F 23.0 °F 75% 30.08 in 8.0 mi Calm Calm - N/A   Scattered Clouds
10:15 AM 30.2 °F 23.0 °F 75% 30.10 in 8.0 mi Calm Calm - N/A   Partly Cloudy
10:35 AM 32.0 °F 23.0 °F 69% 30.10 in 9.0 mi Calm Calm - N/A   Clear
10:55 AM 32.0 °F 21.2 °F 64% 30.11 in 9.0 mi Calm Calm - N/A   Scattered Clouds
11:15 AM 32.0 °F 21.2 °F 64% 30.11 in 9.0 mi Calm Calm - N/A   Partly Cloudy
11:35 AM 32.0 °F 19.4 °F 60% 30.13 in 9.0 mi Calm Calm - N/A   Partly Cloudy
11:55 AM 30.2 °F 19.4 °F 64% 30.13 in 9.0 mi Calm Calm - N/A   Partly Cloudy
12:15 PM 30.2 °F 19.4 °F 64% 30.15 in 4.0 mi Calm Calm - N/A   Haze
12:35 PM 28.4 °F 19.4 °F 69% 30.17 in 7.0 mi Calm Calm - N/A Rain Light Freezing Rain
12:55 PM 28.4 °F 12.2 °F 51% 30.18 in 10.0 mi Calm Calm - N/A   Scattered Clouds
1:15 PM 28.4 °F 12.2 °F 51% 30.19 in 9.0 mi Calm Calm - N/A Rain Light Freezing Rain
1:35 PM 28.4 °F 14.0 °F 55% 30.19 in 10.0 mi Calm Calm - N/A   Mostly Cloudy
1:55 PM 26.6 °F 10.4 °F 51% 30.20 in 10.0 mi Calm Calm - N/A   Overcast
2:15 PM 26.6 °F 10.4 °F 51% 30.22 in 10.0 mi Calm Calm - N/A   Overcast
2:35 PM 26.6 °F 10.4 °F 51% 30.23 in 10.0 mi Calm Calm - N/A   Mostly Cloudy
2:55 PM 26.6 °F 10.4 °F 51% 30.24 in 10.0 mi Calm Calm - N/A   Partly Cloudy
3:15 PM 26.6 °F 8.6 °F 47% 30.24 in 9.0 mi Calm Calm - N/A   Clear
3:35 PM 26.6 °F 10.4 °F 51% 30.24 in 10.0 mi Calm Calm - N/A   Clear
3:55 PM 26.6 °F 8.6 °F 47% 30.25 in 10.0 mi Calm Calm - N/A   Clear
4:15 PM 24.8 °F 8.6 °F 50% 30.26 in 9.0 mi Calm Calm - N/A   Partly Cloudy
4:35 PM 26.6 °F 10.4 °F 51% 30.27 in 9.0 mi Calm Calm - N/A   Clear
4:55 PM 23.0 °F 8.6 °F 54% 30.28 in 9.0 mi Calm Calm - N/A   Clear
5:15 PM 23.0 °F 8.6 °F 54% 30.29 in 10.0 mi Calm Calm - N/A   Clear
5:35 PM 21.2 °F 8.6 °F 58% 30.31 in 9.0 mi Calm Calm - N/A   Clear
5:55 PM 19.4 °F 5.0 °F 54% 30.32 in 10.0 mi Calm Calm - N/A   Clear
6:15 PM 17.6 °F 5.0 °F 58% 30.33 in 10.0 mi Calm Calm - N/A   Clear
6:35 PM 17.6 °F 5.0 °F 58% 30.36 in 10.0 mi Calm Calm - N/A   Clear
6:55 PM 17.6 °F 5.0 °F 58% 30.37 in 10.0 mi Calm Calm - N/A   Clear
7:15 PM 15.8 °F 5.0 °F 62% 30.38 in 10.0 mi Calm Calm - N/A   Clear
7:35 PM 15.8 °F 6.8 °F 68% 30.39 in 10.0 mi Calm Calm - N/A   Clear
7:55 PM 15.8 °F 6.8 °F 68% 30.40 in 10.0 mi Calm Calm - N/A   Clear
8:15 PM 15.8 °F 5.0 °F 62% 30.42 in 10.0 mi Calm Calm - N/A   Clear
8:35 PM 14.0 °F 5.0 °F 67% 30.42 in 10.0 mi North - - N/A   Clear
8:55 PM 14.0 °F 5.0 °F 67% 30.43 in 10.0 mi North - - N/A   Clear
9:15 PM 14.0 °F 5.0 °F 67% 30.45 in 10.0 mi North - - N/A   Clear
9:35 PM 14.0 °F 5.0 °F 67% 30.46 in 10.0 mi North - - N/A   Clear
9:55 PM 14.0 °F 5.0 °F 67% 30.47 in 10.0 mi North - - N/A   Clear
10:15 PM 14.0 °F 5.0 °F 67% 30.48 in 10.0 mi North - - N/A   Clear
10:35 PM 14.0 °F 5.0 °F 67% 30.48 in 10.0 mi North - - N/A   Clear
10:55 PM 14.0 °F 5.0 °F 67% 30.47 in 10.0 mi North - - N/A   Clear
11:15 PM 14.0 °F 3.2 °F 62% 30.47 in 10.0 mi North - - N/A   Clear
11:35 PM 12.2 °F 3.2 °F 67% 30.47 in 10.0 mi North - - N/A   Clear
11:55 PM 12.2 °F 3.2 °F 67% 30.46 in 10.0 mi North - - N/A   Clear